Voltar ao catálogo

FENGYUN 1C DEB

AtivoPO
NORAD 31608·DEBRIS·🇨🇳 China

Lançado May 10, 1999 de Taiyuan Satellite Launch Center

Loading…

Próximas Passagens (próximas 24 horas)

TLE

AtualizadoSource: Space-Track

Época: Sep 14, 2026, 03:00 UTC

1 31608U 99025BZN 26257.12548294  .00006681  00000-0  58845-3 0  9994
2 31608  98.4106  36.4472 0134873 223.3601 135.6942 14.90060117 27106

Acompanhe FENGYUN 1C DEB em tempo real com AllMySat

Download on the App Store